PATHFINDER 1

Last updated on Sun Jul 06 2025 00:02:28 GMT+0000 (Coordinated Universal Time)

1 41787U 16059E 25186.58437197 .00000511 00000+0 99076-4 0 9995 2 41787 97.8125 196.7892 0027642 229.2205 130.6601 14.66957981468883
UTC large
Height (km)
Speed (km/s)
/
Latitude / Longitude
Inclination (degrees)
Orbital Period (minutes)
Azimuth
Elevation
Range (km)
Doppler Factor

Next 0 passes for location: London (51.5072 / 0.1276)

Sorry there are no passes over London.